Lid_Strength_Index
4 4 4 4 4 4 4 4 4 4 5 4 4 4 4 4 4 4 4 4 4 4 4 4 4 3 5 9 9 6 -3 -1 0 1 5 7 9 10 11 9 8 10 9 6 6 6 6
4 4 4 4 4 4 4 5 5 5 5 5 5 5 4 4 4 4 4 4 4 4 4 4 4 3 8 13 7 6 6 1 2 3 5 6 8 8 9 8 9 9 9 6 6 6 6
4 4 4 4 4 4 4 4 4 5 5 5 5 5 4 4 4 4 4 4 4 4 4 4 4 4 6 10 7 6 2 4 3 5 8 6 6 9 8 9 8 10 10 8 8 7 8
4 4 4 4 4 4 4 4 4 5 5 5 5 5 5 5 5 4 5 5 4 4 3 3 3 5 10 5 6 6 6 8 5 5 6 6 7 8 9 7 10 11 11 12 9 7 7
4 4 4 4 4 4 4 5 5 5 5 4 4 5 5 5 5 5 5 5 4 4 2 2 4 7 11 4 6 6 7 8 7 7 6 4 8 9 9 11 14 14 14 12 10 8 8
4 4 4 4 4 5 5 5 5 5 5 5 5 5 5 5 5 6 6 5 5 4 3 2 3 9 8 8 5 6 7 6 6 7 7 7 10 12 13 13 15 15 15 12 11 8 8
4 4 4 4 4 4 5 5 5 5 5 4 5 5 5 5 5 6 7 9 11 12 9 9 9 8 7 6 5 6 6 6 6 6 10 9 12 14 12 12 12 11 13 11 9 7 9
4 4 3 3 4 4 4 4 4 4 4 5 5 5 5 5 6 6 10 12 10 11 14 10 9 9 7 6 8 6 6 8 9 10 9 11 13 10 10 11 12 12 14 14 11 8 9
3 3 3 3 3 3 3 3 3 3 4 4 5 5 5 5 6 9 11 11 10 12 15 12 10 10 9 7 8 8 7 8 9 10 10 11 11 9 10 11 12 14 15 14 13 9 9
2 2 2 2 3 3 2 2 2 2 3 4 4 5 6 6 11 11 11 10 10 10 17 13 12 10 9 8 9 6 6 8 9 10 9 10 8 9 11 11 12 16 11 11 12 11 15
2 2 2 2 2 1 1 1 1 1 2 2 3 4 5 6 10 12 11 9 9 12 20 10 11 8 9 9 8 8 5 8 10 10 10 11 9 10 11 11 11 12 10 11 11 12 13
2 2 2 2 2 1 1 1 1 1 2 2 2 3 5 8 11 10 9 10 12 16 19 11 10 11 11 10 9 7 7 7 8 9 10 9 8 9 9 10 10 10 11 12 12 12 16
2 2 2 1 1 1 1 1 1 1 1 1 2 3 4 6 11 10 9 12 17 19 11 12 13 13 13 12 10 9 9 10 12 14 13 11 9 9 9 12 11 12 15 18 17 17 16
2 2 1 1 1 1 1 1 1 1 1 1 2 2 4 6 7 7 10 15 20 15 14 12 13 13 14 11 11 10 10 11 11 12 14 14 14 10 9 11 13 13 14 17 19 18 16
2 1 1 1 1 1 1 1 1 1 1 1 2 6 6 5 5 8 12 18 18 15 12 13 13 15 15 13 13 11 12 10 9 11 13 14 13 9 9 10 11 14 15 13 16 17 17
2 1 1 1 1 1 1 1 1 1 1 2 6 9 8 4 5 8 13 16 16 12 11 12 16 15 17 15 14 14 13 11 9 9 10 12 14 11 8 9 11 12 12 15 17 19 19
2 2 1 1 1 1 1 1 1 1 1 2 9 11 8 4 6 9 14 14 11 9 10 12 14 16 15 16 15 15 14 11 9 9 9 11 13 12 9 11 12 14 15 16 15 17 18
2 2 1 1 1 1 1 1 1 1 2 5 11 15 8 4 10 11 13 10 8 10 10 11 12 14 15 15 16 15 14 12 9 9 10 11 13 13 12 10 9 11 13 14 17 18 17
2 2 1 1 1 2 2 1 1 2 2 5 11 12 5 5 12 11 10 9 8 10 10 11 13 13 13 16 17 15 12 9 9 9 10 10 14 16 14 12 12 12 13 15 16 17 17
2 2 1 1 1 1 2 1 2 2 1 7 9 12 8 7 6 9 10 10 10 7 8 9 11 12 14 15 15 16 13 10 10 9 6 7 14 11 14 14 11 13 12 13 15 17 17
2 2 2 1 1 1 1 1 1 1 1 6 9 10 8 11 10 9 9 9 11 11 8 9 11 12 15 18 16 16 14 13 11 9 11 12 12 12 10 10 11 11 11 13 14 14 15
2 2 2 2 2 2 1 2 1 1 2 6 8 8 7 9 9 9 9 11 11 10 9 10 11 11 14 17 16 17 16 16 15 13 13 13 14 13 12 10 10 11 10 12 12 13 14
2 2 2 2 2 2 2 2 2 2 3 6 3 2 5 8 11 10 10 10 10 9 8 8 9 12 14 14 13 14 14 14 14 15 15 14 15 15 13 12 12 14 11 11 12 12 11
2 2 2 2 2 2 2 2 2 2 3 4 2 3 7 11 11 9 8 8 10 9 10 8 9 12 12 11 12 14 16 16 15 14 14 14 15 14 15 13 16 11 9 9 10 10 11
2 2 2 2 2 2 2 2 1 2 2 4 4 4 6 11 9 8 8 9 9 8 10 8 8 9 10 14 17 16 16 16 14 13 14 14 14 14 15 14 13 11 10 10 11 11 9
2 2 2 2 2 2 2 2 2 2 2 5 5 3 4 8 10 7 9 8 10 11 10 9 7 7 8 14 17 18 17 16 16 14 14 14 14 14 15 15 16 12 9 7 7 14 10
2 2 2 2 2 3 3 2 2 1 2 5 5 3 4 7 7 8 10 10 9 9 11 10 9 9 9 12 17 19 18 14 16 17 17 16 15 15 15 15 13 9 9 7 13 13 9
2 2 2 2 2 3 3 2 2 2 2 5 6 5 4 6 6 5 5 8 8 9 12 10 11 11 11 13 14 15 15 14 14 13 15 16 16 16 15 15 17 9 8 12 10 9 8
2 2 2 2 2 2 3 3 2 2 2 4 7 6 2 4 5 5 4 3 4 6 9 11 12 13 12 13 13 14 15 14 15 15 13 16 16 17 14 14 10 10 10 10 10 9 8